Hovedside
METAR-TAF:

METAR-TAF

Lufthavner :

Mosjøen, Norge

Mosjøen lufthavn

breddegrad: 65-48N, lengdegrad: 013-08E, høyde over havet: 70 m

Gjeldene værobservasjon

Denne rapporten ble laget for 23 minutter siden, klokken 19:50 UTC
Vind 4 kt fra Vest
Temperatur 7°C
Luftfuktighet 70%
Trykk 1011 hPa
Sikt 10 km eller mer
Få skyer i en høyde av 3200 ft

METAR: ENMS 281950Z 26004KT 9999 FEW032 07/02 Q1011 RMK WIND 412FT 26004KT 230V310

Tid: 22:13 (20:13 UTC)


TAF: fraværende

Værobservasjoner og værvarsel for over 4000 flyplasser (METAR- og TAF-rapporter).

Tilgjengelige stasjoner er representert av de røde og gule prikkene på kartet.

Hold musepekeren over prikken for å se navnet på stasjonen.

Klikk så for å se værobservasjoner og -varsler.

For å forandre kartet kan du klikke på den grønne knappen med svart kryss for å zoome inn, på den grønne knappen med strek for å zoome ut, eller på de grønne pilene for å se tilstøtende kart.


METAR-TAF: